Time,TemperatureF,DewpointF,PressureIn,WindDirection,WindDirectionDegrees,WindSpeedMPH,WindSpeedGustMPH,Humidity,HourlyPrecipIn,Conditions,Clouds,dailyrainin,SolarRadiationWatts/m^2,SoftwareType,DateUTC
2013-02-04 00:02:00,26.0,23.0,-100.00,SE,140,1.0,2.0,90,0.00,,,0.10,0.000000,,2013-02-04 06:02:00,
2013-02-04 00:32:00,25.0,23.0,-100.00,SSE,150,1.0,2.0,92,0.00,,,0.10,0.000000,,2013-02-04 06:32:00,
2013-02-04 00:42:00,25.0,23.0,-100.00,SSE,150,1.0,2.0,92,0.00,,,0.10,0.000000,,2013-02-04 06:42:00,
2013-02-04 00:52:00,25.0,23.0,-100.00,SSE,150,1.0,2.0,92,0.00,,,0.10,0.000000,,2013-02-04 06:52:00,
2013-02-04 01:02:00,25.0,23.0,-100.00,SSE,150,1.0,2.0,92,0.00,,,0.10,0.000000,,2013-02-04 07:02:00,
2013-02-04 01:32:00,25.0,24.0,-100.00,SSW,195,2.0,4.0,94,0.00,,,0.10,0.000000,,2013-02-04 07:32:00,
2013-02-04 01:42:00,25.0,24.0,-100.00,SSW,195,2.0,4.0,94,0.00,,,0.10,0.000000,,2013-02-04 07:42:00,
2013-02-04 01:52:00,25.0,24.0,-100.00,SSW,195,2.0,4.0,94,0.00,,,0.10,0.000000,,2013-02-04 07:52:00,
2013-02-04 02:01:00,25.0,24.0,-100.00,SSW,195,2.0,4.0,94,0.00,,,0.10,0.000000,,2013-02-04 08:01:00,
2013-02-04 02:32:00,24.0,23.0,-100.00,South,179,1.0,3.0,94,0.00,,,0.10,0.000000,,2013-02-04 08:32:00,
2013-02-04 02:42:00,24.0,23.0,-100.00,South,179,1.0,3.0,94,0.00,,,0.10,0.000000,,2013-02-04 08:42:00,
2013-02-04 02:52:00,24.0,23.0,-100.00,South,179,1.0,3.0,94,0.00,,,0.10,0.000000,,2013-02-04 08:52:00,
2013-02-04 03:02:00,24.0,23.0,-100.00,South,179,1.0,3.0,94,0.00,,,0.10,0.000000,,2013-02-04 09:02:00,
2013-02-04 03:32:00,25.0,24.0,-100.00,SSE,157,2.0,2.0,96,0.00,,,0.10,0.000000,,2013-02-04 09:32:00,
2013-02-04 03:42:00,25.0,24.0,-100.00,SSE,157,2.0,2.0,96,0.00,,,0.10,0.000000,,2013-02-04 09:42:00,
2013-02-04 03:52:00,25.0,24.0,-100.00,SSE,157,2.0,2.0,96,0.00,,,0.10,0.000000,,2013-02-04 09:52:00,
2013-02-04 04:01:00,25.0,24.0,-100.00,SSE,157,2.0,2.0,96,0.00,,,0.10,0.000000,,2013-02-04 10:01:00,
2013-02-04 04:32:00,25.0,24.0,-100.00,ESE,122,1.0,2.0,95,0.00,,,0.10,0.000000,,2013-02-04 10:32:00,
2013-02-04 04:42:00,25.0,24.0,-100.00,ESE,122,1.0,2.0,95,0.00,,,0.10,0.000000,,2013-02-04 10:42:00,
2013-02-04 04:52:00,25.0,24.0,-100.00,ESE,122,1.0,2.0,95,0.00,,,0.10,0.000000,,2013-02-04 10:52:00,
2013-02-04 05:02:00,25.0,24.0,-100.00,ESE,122,1.0,2.0,95,0.00,,,0.10,0.000000,,2013-02-04 11:02:00,
2013-02-04 05:33:00,25.0,24.0,-100.00,SE,146,1.0,2.0,96,0.00,,,0.10,0.000000,,2013-02-04 11:33:00,
2013-02-04 05:42:00,25.0,24.0,-100.00,SE,146,1.0,2.0,96,0.00,,,0.10,0.000000,,2013-02-04 11:42:00,
2013-02-04 05:52:00,25.0,24.0,-100.00,SE,146,1.0,2.0,96,0.00,,,0.10,0.000000,,2013-02-04 11:52:00,
2013-02-04 06:02:00,25.0,24.0,-100.00,SE,146,1.0,2.0,96,0.00,,,0.10,0.000000,,2013-02-04 12:02:00,
2013-02-04 06:33:00,26.0,25.0,-100.00,SE,134,2.0,3.0,95,0.00,,,0.10,0.000000,,2013-02-04 12:33:00,
2013-02-04 06:42:00,26.0,25.0,-100.00,SE,134,2.0,3.0,95,0.00,,,0.10,0.000000,,2013-02-04 12:42:00,
2013-02-04 06:53:00,26.0,25.0,-100.00,SE,134,2.0,3.0,95,0.00,,,0.10,0.000000,,2013-02-04 12:53:00,
2013-02-04 07:02:00,26.0,25.0,-100.00,SE,134,2.0,3.0,95,0.00,,,0.10,0.000000,,2013-02-04 13:02:00,
2013-02-04 07:33:00,27.0,24.0,-100.00,SE,144,2.0,6.0,90,0.00,,,0.10,3.000000,,2013-02-04 13:33:00,
2013-02-04 07:42:00,27.0,24.0,-100.00,SE,144,2.0,6.0,90,0.00,,,0.10,3.000000,,2013-02-04 13:42:00,
2013-02-04 07:52:00,27.0,24.0,-100.00,SE,144,2.0,6.0,90,0.00,,,0.10,3.000000,,2013-02-04 13:52:00,
2013-02-04 08:03:00,27.0,24.0,-100.00,SE,144,2.0,6.0,90,0.00,,,0.10,3.000000,,2013-02-04 14:03:00,
2013-02-04 08:33:00,30.0,27.0,-100.00,South,185,4.0,8.0,88,0.00,,,0.10,60.000000,,2013-02-04 14:33:00,
2013-02-04 08:42:00,30.0,27.0,-100.00,South,185,4.0,8.0,88,0.00,,,0.10,60.000000,,2013-02-04 14:42:00,
2013-02-04 08:52:00,30.0,27.0,-100.00,South,185,4.0,8.0,88,0.00,,,0.10,60.000000,,2013-02-04 14:52:00,
2013-02-04 09:03:00,30.0,27.0,-100.00,South,185,4.0,8.0,88,0.00,,,0.10,60.000000,,2013-02-04 15:03:00,
2013-02-04 09:33:00,33.0,28.0,-100.00,South,187,5.0,8.0,82,0.00,,,0.10,134.000000,,2013-02-04 15:33:00,
2013-02-04 09:43:00,33.0,28.0,-100.00,South,187,5.0,8.0,82,0.00,,,0.10,134.000000,,2013-02-04 15:43:00,
2013-02-04 09:53:00,33.0,28.0,-100.00,South,187,5.0,8.0,82,0.00,,,0.10,134.000000,,2013-02-04 15:53:00,
2013-02-04 10:03:00,33.0,28.0,-100.00,South,187,5.0,8.0,82,0.00,,,0.10,134.000000,,2013-02-04 16:03:00,
2013-02-04 12:33:00,45.0,27.0,-100.00,SW,216,9.0,16.0,50,-99.99,,,0.00,284.000000,,2013-02-04 18:33:00,
2013-02-04 12:42:00,45.0,27.0,-100.00,SW,216,9.0,16.0,50,-99.99,,,0.00,284.000000,,2013-02-04 18:42:00,
2013-02-04 12:52:00,45.0,27.0,-100.00,SW,216,9.0,16.0,50,-99.99,,,0.00,284.000000,,2013-02-04 18:52:00,
2013-02-04 13:02:00,45.0,27.0,-100.00,SW,216,9.0,16.0,50,-99.99,,,0.00,284.000000,,2013-02-04 19:02:00,
2013-02-04 13:32:00,50.0,30.0,-100.00,SSW,213,9.0,17.0,46,0.00,,,0.00,385.000000,,2013-02-04 19:32:00,
2013-02-04 13:42:00,50.0,30.0,-100.00,SSW,213,9.0,17.0,46,0.00,,,0.00,385.000000,,2013-02-04 19:42:00,
2013-02-04 13:52:00,50.0,30.0,-100.00,SSW,213,9.0,17.0,46,0.00,,,0.00,385.000000,,2013-02-04 19:52:00,
2013-02-04 14:02:00,50.0,30.0,-100.00,SSW,213,9.0,17.0,46,0.00,,,0.00,385.000000,,2013-02-04 20:02:00,
2013-02-04 15:32:00,53.0,29.0,-100.00,SW,222,9.0,20.0,39,-99.99,,,0.00,234.000000,,2013-02-04 21:32:00,
2013-02-04 15:43:00,53.0,29.0,-100.00,SW,222,9.0,20.0,39,-99.99,,,0.00,234.000000,,2013-02-04 21:43:00,
2013-02-04 15:52:00,53.0,29.0,-100.00,SW,222,9.0,20.0,39,-99.99,,,0.00,234.000000,,2013-02-04 21:52:00,
2013-02-04 16:02:00,53.0,29.0,-100.00,SW,222,9.0,20.0,39,-99.99,,,0.00,234.000000,,2013-02-04 22:02:00,
2013-02-04 16:33:00,51.0,25.0,-100.00,SW,221,7.0,16.0,36,0.00,,,0.00,76.000000,,2013-02-04 22:33:00,
2013-02-04 16:42:00,51.0,25.0,-100.00,SW,221,7.0,16.0,36,0.00,,,0.00,76.000000,,2013-02-04 22:42:00,
2013-02-04 16:52:00,51.0,25.0,-100.00,SW,221,7.0,16.0,36,0.00,,,0.00,76.000000,,2013-02-04 22:52:00,
2013-02-04 17:01:00,51.0,25.0,-100.00,SW,221,7.0,16.0,36,0.00,,,0.00,76.000000,,2013-02-04 23:01:00,
2013-02-04 17:32:00,51.0,26.0,-100.00,SW,219,5.0,9.0,38,0.00,,,0.00,27.000000,,2013-02-04 23:32:00,
2013-02-04 17:42:00,51.0,26.0,-100.00,SW,219,5.0,9.0,38,0.00,,,0.00,27.000000,,2013-02-04 23:42:00,
2013-02-04 17:52:00,51.0,26.0,-100.00,SW,219,5.0,9.0,38,0.00,,,0.00,27.000000,,2013-02-04 23:52:00,
2013-02-04 18:01:00,51.0,26.0,-100.00,SW,219,5.0,9.0,38,0.00,,,0.00,27.000000,,2013-02-05 00:01:00,
2013-02-04 18:32:00,50.0,26.0,-100.00,SW,226,5.0,10.0,39,0.00,,,0.00,1.000000,,2013-02-05 00:32:00,
2013-02-04 18:42:00,50.0,26.0,-100.00,SW,226,5.0,10.0,39,0.00,,,0.00,1.000000,,2013-02-05 00:42:00,
2013-02-04 18:52:00,50.0,26.0,-100.00,SW,226,5.0,10.0,39,0.00,,,0.00,1.000000,,2013-02-05 00:52:00,
2013-02-04 19:02:00,50.0,26.0,-100.00,SW,226,5.0,10.0,39,0.00,,,0.00,1.000000,,2013-02-05 01:02:00,
2013-02-04 19:33:00,49.0,26.0,-100.00,SW,220,8.0,12.0,40,0.00,,,0.00,0.000000,,2013-02-05 01:33:00,
2013-02-04 19:42:00,49.0,26.0,-100.00,SW,220,8.0,12.0,40,0.00,,,0.00,0.000000,,2013-02-05 01:42:00,
2013-02-04 19:52:00,49.0,26.0,-100.00,SW,220,8.0,12.0,40,0.00,,,0.00,0.000000,,2013-02-05 01:52:00,
2013-02-04 20:01:00,49.0,26.0,-100.00,SW,220,8.0,12.0,40,0.00,,,0.00,0.000000,,2013-02-05 02:01:00,
2013-02-04 20:32:00,48.0,26.0,-100.00,SW,223,7.0,13.0,42,0.00,,,0.00,0.000000,,2013-02-05 02:32:00,
2013-02-04 20:42:00,48.0,26.0,-100.00,SW,223,7.0,13.0,42,0.00,,,0.00,0.000000,,2013-02-05 02:42:00,
2013-02-04 20:52:00,48.0,26.0,-100.00,SW,223,7.0,13.0,42,0.00,,,0.00,0.000000,,2013-02-05 02:52:00,
2013-02-04 21:02:00,48.0,26.0,-100.00,SW,223,7.0,13.0,42,0.00,,,0.00,0.000000,,2013-02-05 03:02:00,
2013-02-04 21:32:00,48.0,29.0,-100.00,SW,222,8.0,15.0,48,0.00,,,0.00,0.000000,,2013-02-05 03:32:00,
2013-02-04 21:42:00,48.0,29.0,-100.00,SW,222,8.0,15.0,48,0.00,,,0.00,0.000000,,2013-02-05 03:42:00,
2013-02-04 21:52:00,48.0,29.0,-100.00,SW,222,8.0,15.0,48,0.00,,,0.00,0.000000,,2013-02-05 03:52:00,
2013-02-04 22:01:00,48.0,29.0,-100.00,SW,222,8.0,15.0,48,0.00,,,0.00,0.000000,,2013-02-05 04:01:00,
2013-02-04 22:32:00,46.0,31.0,-100.00,SW,225,7.0,13.0,56,0.00,,,0.00,0.000000,,2013-02-05 04:32:00,
2013-02-04 22:42:00,46.0,31.0,-100.00,SW,225,7.0,13.0,56,0.00,,,0.00,0.000000,,2013-02-05 04:42:00,
2013-02-04 22:52:00,46.0,31.0,-100.00,SW,225,7.0,13.0,56,0.00,,,0.00,0.000000,,2013-02-05 04:52:00,
2013-02-04 23:02:00,46.0,31.0,-100.00,SW,225,7.0,13.0,56,0.00,,,0.00,0.000000,,2013-02-05 05:02:00,
2013-02-04 23:32:00,46.0,32.0,-100.00,SW,221,7.0,10.0,58,0.00,,,0.00,0.000000,,2013-02-05 05:32:00,
2013-02-04 23:42:00,46.0,32.0,-100.00,SW,221,7.0,10.0,58,0.00,,,0.00,0.000000,,2013-02-05 05:42:00,
2013-02-04 23:52:00,46.0,32.0,-100.00,SW,221,7.0,10.0,58,0.00,,,0.00,0.000000,,2013-02-05 05:52:00,